Home > Weather > Darmstadt > Past weeks

Flag for Germany Weather for the Past 2 Weeks in Darmstadt, Hesse, Germany

Now
48 °F

Passing clouds.


Feels Like: 44 °F
Forecast: 43 / 48 °F
Wind: 9 mph from Southwest

Location: Frankfurt-M-Flughafen Airport

Current Time: Feb 6, 2016 at 1:00:48 PM

Latest Report: Feb 6, 2016 at 12:20 PM


Visibility: N/A

Pressure: 30.01 "Hg

Humidity: 71%

Dew point: 39 °F

Location of DarmstadtLocation

Historic Weather in Darmstadt — Graph

°F

Darmstadt Temperature Yesterday

Maximum temperature yesterday: 50 °F (at 3:50 PM)
Minimum temperature yesterday: 37 °F (at 12:20 AM)
Average temperature yesterday: 44 °F

High & Low Weather Summary for the Past Weeks

 TemperatureHumidityPressure
High57 °F (Feb 1, 3:50 AM)100% (Jan 23, 2:50 AM)30.60 "Hg (Jan 23, 2:50 AM)
Low25 °F (Jan 22, 5:50 PM)54% (Jan 25, 3:50 PM)29.80 "Hg (Jan 30, 3:50 PM)
Average43 °F82%30.21 "Hg
* Reported Jan 22 11:20 AM — Feb 6 11:50 AM, Darmstadt, Weather by CustomWeather, © 2016

Note: Actual official high and low records may vary slightly from our data, if they occured in-between our weather recording intervals... More about our weather records

Advertising

Darmstadt Weather History for the Previous 24 Hours

 ConditionsComfort  
Time TempWeatherWind HumidityBarometerVisibility
11:50 AM
Sat, Feb 6
46 °FPassing clouds.6 mph76%30.01 "HgN/A
11:20 AM45 °FSunny.8 mph81%30.01 "Hg10 mi
10:50 AM43 °FSunny.9 mph87%30.01 "Hg10 mi
10:20 AM43 °FSunny.9 mph87%30.04 "Hg10 mi
9:50 AM41 °FSunny.7 mph93%30.04 "Hg10 mi
9:20 AM39 °FSunny.7 mph93%30.04 "Hg10 mi
8:50 AM37 °FSunny.6 mph100%30.04 "Hg10 mi
8:20 AM37 °FLight fog.8 mph93%30.04 "Hg6 mi
7:50 AM36 °FFog.2 mph93%30.04 "Hg3 mi
7:20 AM36 °FFog.2 mph100%30.04 "Hg4 mi
6:50 AM37 °FFog.1 mph93%30.07 "HgN/A
6:20 AM37 °FFog.1 mph93%30.07 "HgN/A
5:50 AM39 °FFog.1 mph93%30.07 "HgN/A
5:20 AM41 °FPassing clouds.5 mph87%30.07 "HgN/A
4:50 AM41 °FPassing clouds.7 mph87%30.07 "HgN/A
4:20 AM43 °FPassing clouds.5 mph87%30.09 "HgN/A
3:50 AM43 °FPartly cloudy.7 mph87%30.09 "HgN/A
3:20 AM45 °FPassing clouds.7 mph87%30.12 "HgN/A
2:50 AM45 °FPassing clouds.6 mph87%30.12 "HgN/A
2:20 AM45 °FPassing clouds.6 mph93%30.12 "HgN/A
1:20 AM46 °FPassing clouds.5 mph87%30.15 "HgN/A
12:50 AM46 °FPassing clouds.6 mph87%30.15 "HgN/A
12:20 AM46 °FPassing clouds.6 mph87%30.15 "HgN/A
11:50 PM
Fri, Feb 5
46 °FPassing clouds.6 mph87%30.18 "HgN/A
11:20 PM46 °FPassing clouds.8 mph82%30.18 "HgN/A
10:50 PM48 °FPassing clouds.7 mph82%30.18 "HgN/A
10:20 PM48 °FPassing clouds.8 mph82%30.18 "HgN/A
9:50 PM48 °FPassing clouds.7 mph82%30.18 "HgN/A
9:20 PM48 °FPassing clouds.8 mph82%30.21 "HgN/A
8:50 PM48 °FPassing clouds.10 mph82%30.21 "HgN/A
8:20 PM48 °FPartly cloudy.12 mph82%30.21 "HgN/A
7:50 PM48 °FPartly cloudy.10 mph82%30.21 "HgN/A
7:20 PM50 °FPassing clouds.9 mph76%30.21 "HgN/A
6:50 PM48 °FPassing clouds.9 mph82%30.24 "HgN/A
6:20 PM48 °FPassing clouds.10 mph82%30.24 "HgN/A
5:50 PM48 °FPassing clouds.10 mph87%30.24 "HgN/A
5:20 PM50 °FPartly sunny.10 mph82%30.24 "HgN/A
4:50 PM50 °FPartly sunny.10 mph82%30.24 "HgN/A
4:20 PM50 °FPartly sunny.9 mph82%30.24 "HgN/A
3:50 PM50 °FPartly sunny.13 mph82%30.24 "HgN/A
3:20 PM48 °FBroken clouds.8 mph87%30.24 "HgN/A
2:50 PM46 °FBroken clouds.8 mph87%30.24 "HgN/A
2:20 PM46 °FLow clouds.8 mph87%30.27 "HgN/A
1:50 PM46 °FLow clouds.8 mph87%30.27 "HgN/A
1:20 PM45 °FPartly sunny.7 mph93%30.27 "HgN/A
Weather by CustomWeather, © 2016

See weather overviewHow to use our weather pages